sat.trackr.live / text

‹ back to catalog

ASTROCAST-0401

NORAD 55110 · 2023-001DF

PAYLOAD ACTIVE UNKNOWN

§ Identity

Operator
Country
SWTZ
Launch date
2023-01-03
Launch site
AFETR
Launch vehicle
Mass (kg)
RCS (m²)

External: N2YO · Heavens-Above · Gunter

§ Orbital elements

Epoch: 2026-09-21T15:03:08.228448Z

Period
94.06 min
Inclination
97.5546°
Eccentricity
0.0007486
Mean motion
15.30862788 rev/d
Perigee alt
468.1 km
Apogee alt
478.4 km
Semi-major
6,851.4 km
B*
5.4962e-4
RAAN
359.1697°
Arg perigee
216.4250°
Mean anomaly
143.6482°
Rev number
20,594

§ Raw data

ASTROCAST-04011 55110U 23001DF  26264.62717857  .00016343  00000+0  54962-3 0  99962 55110  97.5546 359.1697 0007486 216.4250 143.6482 15.30862788205941

JSON: /api/v1/satellites/55110 · /tle

For live sub-satellite position, see the globe view (requires WebGL).

§ Visibility from observer

Set your observer location to see the next 7 days of passes ≥ 10°. The values pass through the URL so the page stays shareable.

No JS? Fill the form by hand. The geolocation button needs JavaScript.